Location: Tucson
(32.2217°N, 110.9265°W)
Time: 17:14:50
(UTC-07:00)

RS-15 - Visible Passes

Search period start: 06 December 2021 00:00
Search period end: 16 December 2021 00:00
Orbit: 1883 x 2161 km, 64.8° (Epoch: 06 December)

Date Brightness Start Highest point End Pass type
(mag) Time Alt. Az. Time Alt. Az. Time Alt. Az.
06 Dec 8.9 03:04:54 36° NNE 03:04:54 36° NNE 03:10:49 10° NNE visible
06 Dec 8.8 05:12:41 26° NW 05:12:56 26° NW 05:22:29 10° NNE visible
07 Dec 9.4 02:30:36 25° NE 02:30:36 25° NE 02:34:37 10° NNE visible
07 Dec 8.8 04:38:24 31° NNW 04:38:24 31° NNW 04:46:42 10° NNE visible
07 Dec 9.5 06:51:27 10° NNW 06:54:22 11° NNW 06:57:20 10° N visible
08 Dec 9.8 01:56:15 17° NE 01:56:15 17° NE 01:58:17 10° NE visible
08 Dec 8.8 04:04:02 33° N 04:04:02 33° N 04:10:51 10° NNE visible
08 Dec 9.4 06:11:54 10° NW 06:16:46 13° NNW 06:21:45 10° N visible
09 Dec 9.1 03:29:36 30° N 03:29:36 30° N 03:34:57 10° NNE visible
09 Dec 9.3 05:37:23 15° NW 05:39:22 16° NNW 05:46:03 10° N visible
10 Dec 9.4 02:55:07 25° NNE 02:55:07 25° NNE 02:58:59 10° NNE visible
10 Dec 9.2 05:02:54 20° NNW 05:02:54 20° NNW 05:10:20 10° N visible
11 Dec 9.7 02:20:36 18° NNE 02:20:36 18° NNE 02:22:56 10° NNE visible
11 Dec 9.2 04:28:23 23° NNW 04:28:23 23° NNW 04:34:35 10° NNE visible
12 Dec 10.0 01:46:03 12° NNE 01:46:03 12° NNE 01:46:46 10° NNE visible
12 Dec 9.3 03:53:49 23° N 03:53:49 23° N 03:58:47 10° NNE visible
12 Dec 9.6 06:04:06 10° NNW 06:06:44 11° NNW 06:09:24 10° N visible
13 Dec 9.4 03:19:13 21° N 03:19:13 21° N 03:22:57 10° NNE visible
13 Dec 9.5 05:26:59 12° NNW 05:29:07 13° NNW 05:33:48 10° N visible
14 Dec 9.6 02:44:36 18° NNE 02:44:36 18° NNE 02:47:03 10° NNE visible
14 Dec 9.4 04:52:22 15° NNW 04:52:22 15° NNW 04:58:08 10° N visible
15 Dec 9.9 02:09:57 14° NNE 02:09:57 14° NNE 02:11:07 10° NNE visible
15 Dec 9.4 04:17:43 17° NNW 04:17:43 17° NNW 04:22:25 10° N visible
15 Dec 9.8 06:34:05 10° N 06:34:39 10° N 06:35:13 10° N visible
